Regional Weather Roundup
Issued by NWS Green Bay, WI

Home | Current Version | Previous Version | Text Only | Print | Product List | Glossary On
Versions: 1 2 3 4 5 6 7 8 9 10 11 12 13 14 15 16 17 18 19 20 21 22 23 24 25 26 27 28 29 30 31 32 33 34 35 36 37 38 39 40 41 42 43 44 45 46 47 48 49 50
000
ASUS43 KGRB 030359
RWRGRB

NORTH-CENTRAL AND NORTHEAST WISCONSIN REGIONAL WEATHER ROUNDUP
NATIONAL WEATHER SERVICE GREEN BAY WI
1000 PM CST MON MAR 02 2015

WIZ005-009-010>012-018-019-030500-
NORTH CENTRAL WISCONSIN

CITY           SKY/WX    TMP DP  RH WIND       PRES   REMARKS
IRONWOOD         N/A     18   1  49 S8G17     30.07F WCI   7
MANITOWISH WTR NOT AVBL
ARBOR VITAE    NOT AVBL
EAGLE RIVER    NOT AVBL
LAND O LAKES   NOT AVBL
RHINELANDER    CLOUDY    18   2  49 S3        30.13F
PHILLIPS         N/A     17   5  57 S6        30.11F WCI   9
ANTIGO         NOT AVBL
TOMAHAWK       NOT AVBL
MERRILL        NOT AVBL
$$

WIZ013-073-030500-
NORTHEAST WISCONSIN

CITY           SKY/WX    TMP DP  RH WIND       PRES   REMARKS
IRON MOUNTAIN    N/A     15   4  61 SE6       30.16F WCI   6
MARINETTE        N/A     19  10  68 SW6       30.25R
$$

WIZ017-030-035>037-045-030500-
CENTRAL WISCONSIN

CITY           SKY/WX    TMP DP  RH WIND       PRES   REMARKS
MEDFORD        NOT AVBL
WAUSAU         CLOUDY    21   7  54 SE6       30.15F
MOSINEE        NOT AVBL
MARSHFIELD     CLOUDY    24   8  50 S8        30.16F
WISC RAPIDS    CLOUDY    25   6  44 S7        30.20F
STEVENS POINT  NOT AVBL
WAUPACA        NOT AVBL
SHAWANO          N/A     25  12  58 CALM      30.24S
CLINTONVILLE   CLOUDY    25  12  58 S7        30.22F
$$

WIZ038-039-048-051-030500-
FOX VALLEY

CITY           SKY/WX    TMP DP  RH WIND       PRES   REMARKS
NWS GREEN BAY    N/A     24  16  71 S7        30.25F
APPLETON       CLOUDY    25  10  54 S9        30.24F
OSHKOSH        CLOUDY    24  13  62 S9        30.24F
FOND DU LAC    CLOUDY    25  12  58 S9        30.24F
$$

WIZ022-050-052-030500-
EAST CENTRAL WISCONSIN

CITY           SKY/WX    TMP DP  RH WIND       PRES   REMARKS
STURGEON BAY     N/A     21  14  73 S9        30.28S
MANITOWOC      NOT AVBL
SHEBOYGAN      CLOUDY    25  14  63 S13       30.26F
$$

LMZ563-521-522-541>543-030500-
LAKESHORE

STATION/POSITION TIME  TEMP    WIND        PRES    VSBY  WAVE
                       AIR SEA DIR/SP/G                  HT/PER
                 (UTC) (F)     (DEG/KT/KT) (MB)    (MI)  (FT/S)
SHEBOYGAN LKSHOR 0300   27     190/ 16/ 17 1026.8F
KEWAUNEE LKSHORE 0300   24     210/  8/ 11 1024.0
NORTHPORT PIER   0300   20     200/  3/  6 1024.7F
SISTER BAY LKSHO 0300   20     180/ 10/ 12   N/A
CHAMBERS ISLAND  0300   20     170/  7/ 12 1024.4F
MENOMINEE LKSHOR 0300   18     200/  4     1024.8F
$$


USA.gov is the U.S. government's official web portal to all federal, state and local government web resources and services.